| time (UTC) | temp F | wind direction | speed knots | gust knots | rain 1hr in | rain 24hr in | rain mn in | humidity % | barometer mb |
| 20260504024005 | 63 | 100 | 3.5 | 6.1 | 0.00 | 0.00 | 0.00 | 66 | 1032.1 |
| 20260504023507 | 64 | 59 | 2.6 | 7.8 | 0.00 | 0.00 | 0.00 | 65 | 1031.9 |
| 20260504023006 | 63 | 106 | 2.6 | 7.0 | 0.00 | 0.00 | 0.00 | 67 | 1032.0 |
| 20260504022505 | 63 | 102 | 2.6 | 7.8 | 0.00 | 0.00 | 0.00 | 65 | 1032.1 |
| 20260504022007 | 63 | 136 | 2.6 | 6.1 | 0.00 | 0.00 | 0.00 | 66 | 1032.1 |
| 20260504021006 | 63 | 84 | 4.3 | 7.8 | 0.00 | 0.00 | 0.00 | 66 | 1031.9 |
| 20260504020506 | 63 | 71 | 3.5 | 6.1 | 0.00 | 0.00 | 0.00 | 65 | 1032.1 |
| 20260504014007 | 63 | 128 | 5.2 | 8.7 | 0.00 | 0.00 | 0.00 | 65 | 1032.2 |
| 20260504010507 | 63 | 118 | 2.6 | 7.0 | 0.00 | 0.00 | 0.00 | 67 | 1032.7 |
| 20260504010005 | 63 | 90 | 5.2 | 7.0 | 0.00 | 0.00 | 0.00 | 66 | 1032.9 |
| 20260504005505 | 63 | 122 | 1.7 | 7.8 | 0.00 | 0.00 | 0.00 | 67 | 1032.8 |
| 20260504005007 | 63 | 111 | 4.3 | 7.0 | 0.00 | 0.00 | 0.00 | 64 | 1032.9 |
| 20260504003005 | 64 | 90 | 4.3 | 7.8 | 0.00 | 0.00 | 0.00 | 64 | 1033.0 |
| 20260504002505 | 64 | 26 | 2.6 | 4.3 | 0.00 | 0.00 | 0.00 | 64 | 1033.1 |
| 20260504002007 | 64 | 185 | 1.7 | 7.0 | 0.00 | 0.00 | 0.00 | 64 | 1032.9 |
| 20260504001005 | 64 | 96 | 4.3 | 7.8 | 0.00 | 0.00 | 0.00 | 66 | 1033.3 |
| 20260504000005 | 64 | 103 | 3.5 | 6.1 | 0.00 | 0.00 | 0.00 | 67 | 1033.4 |
| 20260503235007 | 64 | 150 | 4.3 | 7.8 | 0.00 | 0.00 | 0.00 | 64 | 1033.5 |
| 20260503234505 | 63 | 116 | 3.5 | 6.1 | 0.00 | 0.00 | 0.00 | 68 | 1033.5 |
| 20260503234005 | 63 | 92 | 2.6 | 5.2 | 0.00 | 0.00 | 0.00 | 71 | 1033.7 |
| 20260503233005 | 62 | 56 | 1.7 | 5.2 | 0.00 | 0.00 | 0.00 | 69 | 1033.7 |
| 20260503232505 | 62 | 103 | 1.7 | 4.3 | 0.00 | 0.00 | 0.00 | 69 | 1033.8 |
| 20260503232007 | 62 | 81 | 2.6 | 4.3 | 0.00 | 0.00 | 0.00 | 70 | 1033.6 |
| 20260503231005 | 62 | 122 | 2.6 | 5.2 | 0.00 | 0.00 | 0.00 | 70 | 1033.7 |
| 20260503230505 | 62 | 89 | 2.6 | 5.2 | 0.00 | 0.00 | 0.00 | 71 | 1033.7 |
| 20260503230006 | 62 | 149 | 1.7 | 4.3 | 0.00 | 0.00 | 0.00 | 70 | 1033.5 |
| 20260503225505 | 62 | 76 | 2.6 | 4.3 | 0.00 | 0.00 | 0.00 | 71 | 1033.6 |
| 20260503223505 | 61 | 202 | 1.7 | 2.6 | 0.00 | 0.00 | 0.00 | 72 | 1033.5 |
| 20260503221007 | 60 | 163 | 3.5 | 5.2 | 0.00 | 0.00 | 0.00 | 74 | 1033.5 |
| 20260503215005 | 59 | 358 | 0.9 | 1.7 | 0.00 | 0.00 | 0.00 | 81 | 1033.8 |
| 20260503214005 | 58 | 143 | 1.7 | 2.6 | 0.00 | 0.00 | 0.00 | 82 | 1033.8 |
| 20260503213505 | 58 | 23 | 0.9 | 1.7 | 0.00 | 0.00 | 0.00 | 84 | 1033.9 |
| 20260503212504 | 57 | 315 | 0.9 | 2.6 | 0.00 | 0.00 | 0.00 | 84 | 1033.9 |
| 20260503212005 | 56 | 151 | 1.7 | 2.6 | 0.00 | 0.00 | 0.00 | 85 | 1033.8 |
| 20260503211505 | 56 | 303 | 0.0 | 2.6 | 0.00 | 0.00 | 0.00 | 85 | 1033.7 |
| 20260503210505 | 55 | 169 | 0.9 | 1.7 | 0.00 | 0.00 | 0.00 | 85 | 1033.9 |
| 20260503205505 | 55 | 296 | 0.9 | 1.7 | 0.00 | 0.00 | 0.00 | 87 | 1033.9 |
| 20260503204507 | 54 | 300 | 0.9 | 2.6 | 0.00 | 0.00 | 0.00 | 87 | 1034.2 |
| 20260503203505 | 53 | 154 | 1.7 | 2.6 | 0.00 | 0.00 | 0.00 | 87 | 1034.1 |
| 20260503203007 | 53 | 168 | 0.0 | 1.7 | 0.00 | 0.00 | 0.00 | 88 | 1034.0 |
| 20260503201506 | 53 | 103 | 1.7 | 2.6 | 0.00 | 0.00 | 0.00 | 88 | 1034.0 |
| 20260503201005 | 53 | 106 | 1.7 | 2.6 | 0.00 | 0.00 | 0.00 | 88 | 1033.9 |
| 20260503195506 | 52 | 29 | 0.0 | 1.7 | 0.00 | 0.00 | 0.00 | 88 | 1033.7 |
| 20260503195006 | 52 | 168 | 1.7 | 2.6 | 0.00 | 0.00 | 0.00 | 89 | 1033.6 |
| 20260503193005 | 52 | 74 | 1.7 | 4.3 | 0.00 | 0.00 | 0.00 | 89 | 1033.6 |
| 20260503192505 | 52 | 193 | 2.6 | 4.3 | 0.00 | 0.00 | 0.00 | 89 | 1033.4 |
| 20260503190007 | 52 | 137 | 2.6 | 4.3 | 0.00 | 0.00 | 0.00 | 89 | 1033.4 |
| 20260503184006 | 52 | 142 | 3.5 | 6.1 | 0.00 | 0.00 | 0.00 | 89 | 1033.2 |
| 20260503183504 | 52 | 147 | 3.5 | 6.1 | 0.00 | 0.00 | 0.00 | 88 | 1033.2 |
| 20260503181005 | 52 | 116 | 1.7 | 4.3 | 0.00 | 0.00 | 0.00 | 87 | 1032.9 |
| 20260503180507 | 52 | 38 | 2.6 | 4.3 | 0.00 | 0.00 | 0.00 | 87 | 1032.8 |
| 20260503180005 | 52 | 7 | 1.7 | 2.6 | 0.00 | 0.00 | 0.00 | 87 | 1032.8 |
| 20260503174506 | 52 | 16 | 1.7 | 2.6 | 0.00 | 0.00 | 0.00 | 87 | 1032.9 |
| 20260503173505 | 52 | 115 | 0.9 | 2.6 | 0.00 | 0.00 | 0.00 | 87 | 1032.7 |
| 20260503173004 | 52 | 16 | 1.7 | 2.6 | 0.00 | 0.00 | 0.00 | 87 | 1032.7 |
| 20260503172505 | 52 | 61 | 2.6 | 4.3 | 0.00 | 0.00 | 0.00 | 87 | 1032.5 |
| 20260503171505 | 52 | 59 | 2.6 | 2.6 | 0.00 | 0.00 | 0.00 | 86 | 1032.7 |
| 20260503171004 | 52 | 35 | 2.6 | 4.3 | 0.00 | 0.00 | 0.00 | 86 | 1032.6 |
| 20260503170506 | 52 | 90 | 2.6 | 4.3 | 0.00 | 0.00 | 0.00 | 86 | 1032.7 |
| 20260503151007 | 53 | 179 | 2.6 | 6.1 | 0.00 | 0.00 | 0.00 | 86 | 1032.9 |
| 20260503150506 | 53 | 160 | 2.6 | 4.3 | 0.00 | 0.00 | 0.00 | 86 | 1033.1 |
| 20260503130506 | 53 | 49 | 0.9 | 2.6 | 0.00 | 0.00 | 0.00 | 86 | 1033.8 |
| 20260503090506 | 55 | 326 | 1.7 | 2.6 | 0.00 | 0.00 | 0.00 | 79 | 1033.0 |
| 20260503080506 | 55 | 334 | 0.9 | 1.7 | 0.00 | 0.00 | 0.00 | 78 | 1032.7 |
| 20260503072506 | 56 | 331 | 1.7 | 2.6 | 0.00 | 0.00 | 0.00 | 77 | 1032.6 |
| 20260503071006 | 56 | 358 | 1.7 | 1.7 | 0.00 | 0.00 | 0.00 | 77 | 1032.5 |
| 20260503054507 | 58 | 208 | 1.7 | 7.0 | 0.00 | 0.00 | 0.00 | 73 | 1032.1 |
| 20260503053008 | 59 | 208 | 4.3 | 7.0 | 0.00 | 0.00 | 0.00 | 72 | 1031.8 |
| 20260503052005 | 60 | 204 | 5.2 | 7.8 | 0.00 | 0.00 | 0.00 | 71 | 1032.0 |
| 20260503045005 | 61 | 212 | 6.1 | 12.2 | 0.00 | 0.00 | 0.00 | 69 | 1031.9 |
| 20260503044507 | 61 | 215 | 6.1 | 11.3 | 0.00 | 0.00 | 0.00 | 69 | 1031.9 |
| 20260503043005 | 62 | 210 | 7.0 | 11.3 | 0.00 | 0.00 | 0.00 | 67 | 1031.8 |
| 20260503042508 | 62 | 203 | 7.0 | 10.4 | 0.00 | 0.00 | 0.00 | 67 | 1031.8 |
| 20260503040007 | 63 | 207 | 4.3 | 10.4 | 0.00 | 0.00 | 0.00 | 66 | 1031.9 |
| 20260503035505 | 64 | 203 | 4.3 | 11.3 | 0.00 | 0.00 | 0.00 | 65 | 1032.0 |
| 20260503033505 | 64 | 221 | 7.0 | 10.4 | 0.00 | 0.00 | 0.00 | 63 | 1031.8 |
| 20260503032006 | 65 | 217 | 5.2 | 8.7 | 0.00 | 0.00 | 0.00 | 63 | 1031.9 |
| 20260503031006 | 65 | 213 | 5.2 | 11.3 | 0.00 | 0.00 | 0.00 | 62 | 1031.8 |
| 20260503025006 | 66 | 235 | 4.3 | 7.8 | 0.00 | 0.00 | 0.00 | 62 | 1031.8 |